WZZ522 EDDS-EPKK

Flight info

Callsign WZZ522
Flight time 1h 12m
Altitude 35000
Route DKB4H/07 DKB N869 ANELA Z715 KULOK L984 OKG DCT ETUDA DCT PADKA
Aircraft A21N/M-SDE2E3FGHIRWXY/LB1

Departure

Time 2026-05-01 10:31
Airport Stuttgart Airport (EDDS)

Arrival

Time 2026-05-01 11:44
Airport Kraków John Paul II International Airport (EPKK)
Time Latitude Longitude Altitude Speed Heading
2026-05-01 09:48 48.68964 9.19778 1315 ft 0 kts 344°
2026-05-01 10:14 48.68949 9.19784 1314 ft 4 kts 344°
2026-05-01 10:14 48.68925 9.19795 1312 ft 2 kts 344°
2026-05-01 10:15 48.68905 9.19810 1311 ft 4 kts 297°
2026-05-01 10:15 48.68905 9.19843 1310 ft 5 kts 245°
2026-05-01 10:15 48.68918 9.19878 1309 ft 4 kts 238°
2026-05-01 10:15 48.68929 9.19905 1309 ft 4 kts 238°
2026-05-01 10:16 48.68943 9.19940 1309 ft 5 kts 238°
2026-05-01 10:16 48.68957 9.19974 1308 ft 5 kts 238°
2026-05-01 10:16 48.68965 9.19993 1308 ft 2 kts 238°
2026-05-01 10:25 48.68934 9.19920 1309 ft 8 kts 238°
2026-05-01 10:26 48.68884 9.19875 1307 ft 10 kts 172°
2026-05-01 10:26 48.68818 9.19914 1303 ft 11 kts 140°
2026-05-01 10:26 48.68714 9.20109 1292 ft 13 kts 105°
2026-05-01 10:27 48.68709 9.20146 1290 ft 0 kts 102°
2026-05-01 10:29 48.68708 9.20153 1290 ft 3 kts 102°
2026-05-01 10:30 48.68685 9.20297 1286 ft 8 kts 105°
2026-05-01 10:30 48.68667 9.20498 1279 ft 11 kts 86°
2026-05-01 10:31 48.68952 9.22033 1253 ft 140 kts 73°
2026-05-01 10:31 48.69581 9.25069 2316 ft 155 kts 77°
2026-05-01 10:32 48.70049 9.28504 3455 ft 177 kts 78°
2026-05-01 10:32 48.70420 9.30383 4028 ft 191 kts 75°
2026-05-01 10:32 48.71400 9.34521 4988 ft 236 kts 74°
2026-05-01 10:33 48.72444 9.39785 6123 ft 271 kts 78°
2026-05-01 10:33 48.73235 9.45296 8042 ft 273 kts 79°
2026-05-01 10:34 48.73764 9.48082 8937 ft 274 kts 73°
2026-05-01 10:34 48.74583 9.50688 9899 ft 278 kts 56°
2026-05-01 10:34 48.75836 9.52960 10622 ft 287 kts 51°
2026-05-01 10:35 48.78653 9.57866 11253 ft 330 kts 51°
2026-05-01 10:35 48.80182 9.60608 11535 ft 351 kts 52°
2026-05-01 10:35 48.81786 9.63527 11807 ft 369 kts 52°
2026-05-01 10:35 48.83463 9.66590 12159 ft 383 kts 52°
2026-05-01 10:36 48.86877 9.72869 13584 ft 387 kts 52°
2026-05-01 10:36 48.88579 9.75997 14224 ft 391 kts 52°
2026-05-01 10:36 48.90315 9.79205 14777 ft 395 kts 52°
2026-05-01 10:37 48.92068 9.82444 15400 ft 397 kts 52°
2026-05-01 10:37 48.95597 9.88977 16632 ft 404 kts 52°
2026-05-01 10:37 48.97386 9.92291 17278 ft 406 kts 52°
2026-05-01 10:38 48.99182 9.95632 17905 ft 409 kts 52°
2026-05-01 10:38 49.00990 9.98998 18535 ft 412 kts 52°
2026-05-01 10:38 49.02816 10.02393 19063 ft 415 kts 52°
2026-05-01 10:38 49.04650 10.05811 19585 ft 419 kts 52°
2026-05-01 10:39 49.06499 10.09265 20074 ft 422 kts 52°
2026-05-01 10:39 49.08361 10.12750 20633 ft 424 kts 51°
2026-05-01 10:39 49.10239 10.16261 21103 ft 427 kts 52°
2026-05-01 10:39 49.12109 10.19765 21593 ft 430 kts 51°
2026-05-01 10:40 49.14017 10.23311 22083 ft 433 kts 50°
2026-05-01 10:40 49.16111 10.26688 22620 ft 435 kts 46°
2026-05-01 10:40 49.18219 10.29952 23097 ft 438 kts 46°
2026-05-01 10:40 49.20370 10.33281 23572 ft 441 kts 46°
2026-05-01 10:41 49.22535 10.36640 24021 ft 444 kts 46°
2026-05-01 10:41 49.24644 10.39917 24408 ft 446 kts 45°
2026-05-01 10:41 49.27462 10.44226 24513 ft 454 kts 45°
2026-05-01 10:42 49.29725 10.47670 24811 ft 459 kts 45°
2026-05-01 10:42 49.31973 10.51097 25211 ft 460 kts 45°
2026-05-01 10:42 49.34238 10.54569 25690 ft 459 kts 45°
2026-05-01 10:42 49.36455 10.58119 26185 ft 458 kts 46°
2026-05-01 10:43 49.38633 10.61632 26654 ft 457 kts 46°
2026-05-01 10:43 49.40826 10.65178 27128 ft 455 kts 46°
2026-05-01 10:43 49.43017 10.68702 27560 ft 455 kts 46°
2026-05-01 10:43 49.45207 10.72141 27994 ft 454 kts 45°
2026-05-01 10:44 49.47419 10.75605 28436 ft 452 kts 45°
2026-05-01 10:44 49.49620 10.79070 28840 ft 452 kts 46°
2026-05-01 10:44 49.51817 10.82540 29237 ft 451 kts 46°
2026-05-01 10:44 49.53987 10.85973 29613 ft 450 kts 46°
2026-05-01 10:45 49.56178 10.89446 30001 ft 449 kts 46°
2026-05-01 10:45 49.58338 10.92872 30375 ft 448 kts 46°
2026-05-01 10:45 49.60517 10.96330 30735 ft 447 kts 46°
2026-05-01 10:45 49.62666 10.99745 31084 ft 447 kts 46°
2026-05-01 10:46 49.64841 11.03211 31411 ft 446 kts 46°
2026-05-01 10:46 49.67007 11.06665 31741 ft 445 kts 46°
2026-05-01 10:46 49.69136 11.10062 32038 ft 445 kts 46°
2026-05-01 10:46 49.71297 11.13514 32344 ft 444 kts 46°
2026-05-01 10:47 49.73451 11.16964 32631 ft 444 kts 46°
2026-05-01 10:47 49.75581 11.20379 32915 ft 443 kts 46°
2026-05-01 10:47 49.77880 11.23590 33145 ft 444 kts 37°
2026-05-01 10:47 49.80364 11.26432 33399 ft 443 kts 36°
2026-05-01 10:48 49.82841 11.29218 33663 ft 443 kts 36°
2026-05-01 10:48 49.85339 11.32041 33917 ft 442 kts 36°
2026-05-01 10:48 49.87827 11.34856 34172 ft 441 kts 36°
2026-05-01 10:48 49.90305 11.37663 34408 ft 441 kts 36°
2026-05-01 10:49 49.92723 11.40487 34624 ft 440 kts 39°
2026-05-01 10:49 49.94975 11.43750 34823 ft 440 kts 45°
2026-05-01 10:49 49.97141 11.47130 35002 ft 441 kts 45°
2026-05-01 10:50 50.01450 11.53898 35025 ft 441 kts 45°
2026-05-01 10:50 50.05352 11.61196 35005 ft 442 kts 60°
2026-05-01 10:50 50.06596 11.65587 35000 ft 442 kts 72°
2026-05-01 10:51 50.07212 11.70294 34998 ft 442 kts 85°
2026-05-01 10:51 50.07217 11.79824 35002 ft 443 kts 91°
2026-05-01 10:52 50.07092 11.89407 34998 ft 444 kts 91°
2026-05-01 10:52 50.07002 11.99053 35008 ft 443 kts 91°
2026-05-01 10:53 50.06914 12.08619 35007 ft 443 kts 91°
2026-05-01 10:53 50.06803 12.18171 35000 ft 443 kts 91°
2026-05-01 10:54 50.06676 12.27783 35005 ft 442 kts 91°
2026-05-01 10:54 50.06545 12.37324 35005 ft 442 kts 91°
2026-05-01 10:55 50.06526 12.46928 35008 ft 442 kts 89°
2026-05-01 10:55 50.06564 12.56472 35004 ft 442 kts 90°
2026-05-01 10:56 50.06592 12.66031 35001 ft 444 kts 90°
2026-05-01 10:56 50.06613 12.75692 35007 ft 444 kts 90°
2026-05-01 10:57 50.06631 12.85280 34996 ft 443 kts 90°
2026-05-01 10:57 50.06641 12.94832 35001 ft 443 kts 90°
2026-05-01 10:58 50.06638 13.04450 35002 ft 443 kts 90°
2026-05-01 10:58 50.06629 13.14030 35009 ft 443 kts 90°
2026-05-01 10:59 50.06616 13.23588 34997 ft 442 kts 90°
2026-05-01 10:59 50.06590 13.33180 34998 ft 442 kts 90°
2026-05-01 11:00 50.06555 13.42724 34999 ft 442 kts 90°
2026-05-01 11:00 50.06514 13.52332 34999 ft 443 kts 90°
2026-05-01 11:01 50.06467 13.61879 35001 ft 442 kts 90°
2026-05-01 11:01 50.06410 13.71439 35008 ft 442 kts 90°
2026-05-01 11:02 50.06355 13.80993 35001 ft 442 kts 90°
2026-05-01 11:02 50.06284 13.90561 34997 ft 441 kts 91°
2026-05-01 11:03 50.06206 14.00081 35001 ft 442 kts 91°
2026-05-01 11:03 50.06117 14.09635 35001 ft 441 kts 91°
2026-05-01 11:04 50.06026 14.19206 35011 ft 441 kts 91°
2026-05-01 11:04 50.05918 14.28766 34998 ft 441 kts 91°
2026-05-01 11:05 50.05805 14.38265 34998 ft 441 kts 91°
2026-05-01 11:05 50.05685 14.47828 35001 ft 440 kts 91°
2026-05-01 11:06 50.05560 14.57335 35007 ft 440 kts 91°
2026-05-01 11:06 50.05426 14.66893 34999 ft 441 kts 91°
2026-05-01 11:07 50.05214 14.81142 35002 ft 441 kts 91°
2026-05-01 11:07 50.05086 14.89098 35010 ft 441 kts 91°
2026-05-01 11:08 50.04924 14.98657 35001 ft 441 kts 91°
2026-05-01 11:09 50.04672 15.12928 35005 ft 440 kts 91°
2026-05-01 11:09 50.04494 15.22413 34999 ft 440 kts 91°
2026-05-01 11:10 50.04212 15.36735 34999 ft 440 kts 91°
2026-05-01 11:10 50.04013 15.46229 34999 ft 440 kts 92°
2026-05-01 11:11 50.03803 15.55773 35001 ft 440 kts 92°
2026-05-01 11:11 50.03588 15.65276 35000 ft 440 kts 92°
2026-05-01 11:12 50.03367 15.74765 34999 ft 440 kts 92°
2026-05-01 11:12 50.03139 15.84258 34999 ft 440 kts 92°
2026-05-01 11:13 50.02901 15.93819 35004 ft 440 kts 92°
2026-05-01 11:13 50.02654 16.03311 35001 ft 440 kts 92°
2026-05-01 11:14 50.02402 16.12812 34999 ft 441 kts 92°
2026-05-01 11:14 50.02142 16.22331 35008 ft 441 kts 92°
2026-05-01 11:15 50.01873 16.31852 35004 ft 441 kts 92°
2026-05-01 11:15 50.01594 16.41425 35008 ft 442 kts 92°
2026-05-01 11:16 50.01308 16.50955 34999 ft 442 kts 92°
2026-05-01 11:16 50.00961 16.60481 35000 ft 442 kts 93°
2026-05-01 11:17 50.00590 16.70001 35004 ft 443 kts 93°
2026-05-01 11:17 50.00214 16.79539 34997 ft 443 kts 94°
2026-05-01 11:18 49.99830 16.89125 34997 ft 442 kts 94°
2026-05-01 11:18 49.99440 16.98630 34997 ft 442 kts 94°
2026-05-01 11:19 49.99046 17.08118 35006 ft 443 kts 94°
2026-05-01 11:19 49.98639 17.17674 35008 ft 442 kts 94°
2026-05-01 11:20 49.98230 17.27171 35000 ft 442 kts 94°
2026-05-01 11:20 49.97810 17.36719 34998 ft 441 kts 94°
2026-05-01 11:21 49.97388 17.46180 35009 ft 441 kts 94°
2026-05-01 11:21 49.96952 17.55697 35006 ft 441 kts 94°
2026-05-01 11:22 49.96512 17.65162 34998 ft 440 kts 94°
2026-05-01 11:22 49.96071 17.74608 34998 ft 439 kts 94°
2026-05-01 11:23 49.95615 17.84103 35011 ft 439 kts 94°
2026-05-01 11:23 49.95157 17.93512 34922 ft 435 kts 94°
2026-05-01 11:24 49.94923 17.98203 34554 ft 436 kts 94°
2026-05-01 11:24 49.94687 18.02920 34105 ft 436 kts 94°
2026-05-01 11:24 49.94209 18.12230 32775 ft 435 kts 95°
2026-05-01 11:25 49.93966 18.16924 32047 ft 436 kts 94°
2026-05-01 11:25 49.93479 18.26293 30540 ft 438 kts 95°
2026-05-01 11:25 49.93289 18.31031 29716 ft 439 kts 92°
2026-05-01 11:26 49.93147 18.35815 28854 ft 441 kts 92°
2026-05-01 11:26 49.92864 18.45305 27122 ft 444 kts 92°
2026-05-01 11:26 49.92719 18.50109 26207 ft 446 kts 92°
2026-05-01 11:27 49.92572 18.54926 25265 ft 447 kts 92°
2026-05-01 11:27 49.92419 18.59763 24416 ft 446 kts 93°
2026-05-01 11:27 49.92267 18.64524 23632 ft 443 kts 93°
2026-05-01 11:27 49.92110 18.69298 22839 ft 441 kts 93°
2026-05-01 11:28 49.91953 18.74048 22139 ft 436 kts 93°
2026-05-01 11:28 49.91795 18.78661 21514 ft 430 kts 94°
2026-05-01 11:28 49.91561 18.83275 20799 ft 425 kts 95°
2026-05-01 11:29 49.91057 18.92327 19364 ft 418 kts 95°
2026-05-01 11:29 49.90803 18.96826 18654 ft 415 kts 95°
2026-05-01 11:29 49.90299 19.05678 17347 ft 405 kts 95°
2026-05-01 11:30 49.90052 19.09966 17028 ft 389 kts 95°
2026-05-01 11:30 49.89818 19.14036 16786 ft 374 kts 95°
2026-05-01 11:30 49.89590 19.17969 16578 ft 358 kts 95°
2026-05-01 11:30 49.89370 19.21763 16391 ft 344 kts 95°
2026-05-01 11:31 49.89167 19.25343 16221 ft 330 kts 94°
2026-05-01 11:31 49.89297 19.28828 16047 ft 316 kts 76°
2026-05-01 11:31 49.90024 19.32000 15704 ft 309 kts 66°
2026-05-01 11:31 49.90895 19.35006 15224 ft 308 kts 65°
2026-05-01 11:32 49.91781 19.38032 14742 ft 307 kts 66°
2026-05-01 11:32 49.92650 19.41053 14278 ft 305 kts 66°
2026-05-01 11:32 49.93504 19.44063 13806 ft 303 kts 66°
2026-05-01 11:32 49.94337 19.47026 13367 ft 301 kts 66°
2026-05-01 11:33 49.95054 19.50079 12905 ft 299 kts 75°
2026-05-01 11:33 49.95499 19.53224 12443 ft 297 kts 79°
2026-05-01 11:33 49.95893 19.56322 11996 ft 295 kts 79°
2026-05-01 11:33 49.96296 19.59452 11549 ft 293 kts 78°
2026-05-01 11:34 49.96704 19.62555 11111 ft 291 kts 78°
2026-05-01 11:34 49.97107 19.65589 10688 ft 288 kts 78°
2026-05-01 11:34 49.97513 19.68631 10301 ft 284 kts 78°
2026-05-01 11:34 49.97915 19.71631 9937 ft 282 kts 78°
2026-05-01 11:35 49.98315 19.74617 9590 ft 282 kts 78°
2026-05-01 11:35 49.98715 19.77570 9235 ft 283 kts 78°
2026-05-01 11:35 49.99119 19.80552 8891 ft 279 kts 78°
2026-05-01 11:35 49.99516 19.83486 8541 ft 275 kts 78°
2026-05-01 11:36 49.99831 19.85818 8261 ft 276 kts 78°
2026-05-01 11:36 49.99880 19.86182 8217 ft 276 kts 78°
2026-05-01 11:36 50.00272 19.89079 7882 ft 275 kts 78°
2026-05-01 11:37 50.00647 19.91946 7721 ft 263 kts 78°
2026-05-01 11:37 50.00998 19.94657 7668 ft 248 kts 78°
2026-05-01 11:37 50.01336 19.97278 7244 ft 251 kts 78°
2026-05-01 11:37 50.01681 19.99948 6729 ft 253 kts 78°
2026-05-01 11:38 50.02030 20.02651 6228 ft 254 kts 78°
2026-05-01 11:38 50.02690 20.05145 5579 ft 257 kts 50°
2026-05-01 11:38 50.04233 20.06655 4653 ft 272 kts 13°
2026-05-01 11:38 50.06171 20.06669 3474 ft 293 kts 352°
2026-05-01 11:39 50.08106 20.06146 3394 ft 272 kts 347°
2026-05-01 11:39 50.09823 20.05239 3348 ft 249 kts 322°
2026-05-01 11:39 50.10715 20.03210 3574 ft 220 kts 283°
2026-05-01 11:39 50.11035 20.00936 3419 ft 209 kts 281°
2026-05-01 11:40 50.11123 19.98756 3325 ft 192 kts 262°
2026-05-01 11:40 50.10788 19.96824 3164 ft 179 kts 250°
2026-05-01 11:40 50.10416 19.95085 3042 ft 158 kts 252°
2026-05-01 11:40 50.10077 19.93545 2760 ft 148 kts 251°
2026-05-01 11:41 50.09758 19.92017 2406 ft 148 kts 253°
2026-05-01 11:41 50.09490 19.90471 2145 ft 146 kts 258°
2026-05-01 11:41 50.09295 19.89016 2101 ft 126 kts 261°
2026-05-01 11:41 50.09090 19.87718 1929 ft 125 kts 261°
2026-05-01 11:42 50.08902 19.86395 1712 ft 125 kts 258°
2026-05-01 11:42 50.08687 19.85051 1573 ft 129 kts 258°
2026-05-01 11:42 50.08522 19.83695 1402 ft 122 kts 259°
2026-05-01 11:42 50.08311 19.82442 1170 ft 125 kts 257°
2026-05-01 11:43 50.08148 19.81110 1012 ft 125 kts 257°
2026-05-01 11:43 50.07952 19.79796 828 ft 122 kts 258°
2026-05-01 11:43 50.07795 19.78664 807 ft 86 kts 257°
2026-05-01 11:44 50.07657 19.78093 805 ft 16 kts 182°
2026-05-01 11:44 50.07542 19.78085 805 ft 14 kts 183°
2026-05-01 11:44 50.07474 19.78163 805 ft 16 kts 82°
2026-05-01 11:44 50.07499 19.78342 805 ft 18 kts 78°
2026-05-01 11:45 50.07526 19.78538 805 ft 20 kts 78°
2026-05-01 11:45 50.07556 19.78751 805 ft 20 kts 77°
2026-05-01 11:45 50.07589 19.78977 805 ft 22 kts 77°
2026-05-01 11:45 50.07623 19.79220 805 ft 24 kts 78°
2026-05-01 11:46 50.07659 19.79477 805 ft 25 kts 78°
2026-05-01 11:46 50.07691 19.79714 805 ft 16 kts 78°
2026-05-01 11:46 50.07697 19.79850 805 ft 11 kts 124°
2026-05-01 11:46 50.07622 19.79894 805 ft 13 kts 168°
2026-05-01 11:47 50.07537 19.79923 805 ft 9 kts 164°
2026-05-01 11:47 50.07514 19.80017 805 ft 11 kts 78°
2026-05-01 11:47 50.07525 19.80095 805 ft 6 kts 86°
2026-05-01 11:47 50.07488 19.80119 805 ft 8 kts 117°
2026-05-01 11:48 50.07465 19.80142 805 ft 3 kts 164°
2026-05-01 11:48 50.07463 19.80142 805 ft 0 kts 174°